PulseSat

PulseSat

COSMOS 2419 (714)

Last updated on Oct. 16, 2017, 12:19 a.m. UTC

1 28915U 05050A   17288.26479309 -.00000019  00000-0  00000-0 0  9992
2 28915  65.5562  61.8100 0015715 357.8174  44.7560  2.13106817 91898
UTC
Height (km)
Latitude
Longitude
Inclination
Orbital Period

Next 30 passes for location: Hong Kong

Rise time Rise Azimuth (degrees) Set time Set Azimuth (degrees) Duration Max altitude (degrees)

No matching passes for this satellites

PulseSat

PulseSat is the new satellites software and hardware trackering solution by Pulsely.
Satellite Two Line Element Set source: US Air Force Space Command

Download PulseSat for iOS
© 2017 Pulsely Limited